Regional Weather Roundup
Issued by NWS Lake Charles, LA

Home | Current Version | Previous Version | Text Only | Print | Product List | Glossary On
Versions: 1 2 3 4 5 6 7 8 9 10 11 12 13 14 15 16 17 18 19 20 21 22 23 24 25 26 27 28 29 30 31 32 33 34 35 36 37 38 39 40 41 42 43 44 45 46 47 48 49 50
000
ASUS44 KLCH 031010
RWRLCH
RWRLCH
REGIONAL WEATHER ROUNDUP
NATIONAL WEATHER SERVICE LAKE CHARLES LA
500 AM CDT MON AUG 03 2015

Note: "fair" indicates few or no clouds below 12,000 feet with no
significant weather and/or obstructions to visibility.


ACROSS SOUTHEAST TEXAS

CITY           SKY/WX    TMP DP  RH WIND       PRES   REMARKS
BEAUMONT       CLEAR     75  71  87 CALM      29.86F
BEAUMONT CITY    N/A     71  69  95 CALM      29.88S
ORANGE         SUNNY     72  72 100 CALM      29.89S
JASPER         CLEAR     71  68  90 CALM      29.92R
$$

ACROSS CENTRAL LOUISIANA

CITY           SKY/WX    TMP DP  RH WIND       PRES   REMARKS
LEESVILLE      CLEAR     72  67  83 SW2       29.88S
FULLERTON        N/A     68  65  90 CALM      29.87S
ALEXANDRIA INT CLEAR     71  70  96 CALM      29.87R
ESLER FIELD    CLEAR     71  68  90 CALM      29.88S
DERIDDER         N/A     71  68  90 CALM      29.91S
OAKDALE          N/A     67  65  94 CALM      29.88S
OPELOUSAS        N/A     70  69  98 CALM      29.88S
$$

ACROSS SOUTHWEST AND SOUTH CENTRAL LOUISIANA

CITY           SKY/WX    TMP DP  RH WIND       PRES   REMARKS
SULPHUR        SUNNY     73  72  98 N3        29.88S
LAKE CHARLES   CLEAR     76  72  87 CALM      29.87S
CHENNAULT INT  CLEAR     74  72  92 N3        29.88S
CAMERON PHI    SUNNY     77  75  94 NE5       29.90S
DEQUINCY         N/A     69  69 100 CALM      29.89S
JENNINGS         N/A     74  73  95 CALM      29.88S
LAFAYETTE      CLEAR     75  73  93 CALM      29.88S
NEW IBERIA     CLEAR     75  72  90 NW3       29.88S
ABBEVILLE      FOG       71  71  99 CALM      29.88S VSB 1
PATTERSON      CLEAR     75  73  94 CALM      29.88S
SALT POINT       N/A     84  77  79 MISG      29.85S
$$

SELECTED SITES ACROSS THE REGION

CITY           SKY/WX    TMP DP  RH WIND       PRES   REMARKS
HOUSTON BUSH   CLEAR     76  72  87 CALM      29.88S
HOUSTON HOBBY  CLEAR     77  71  82 CALM      29.87S
GALVESTON      CLEAR     82  75  79 NW6       29.88S
COLLEGE STAT   CLEAR     75  69  81 CALM      29.89S
CONROE         CLEAR     70  66  87 CALM      29.89S
HUNTSVILLE     CLEAR     75  68  78 S3        29.89S
LUFKIN         CLEAR     69  66  90 CALM      29.89R
SHREVEPORT     PTCLDY    72  66  81 CALM      29.88S
MONROE         CLEAR     71  68  90 CALM      29.89S
NATCHEZ MS     CLEAR     72  66  83 CALM      29.89S
BATON ROUGE    CLEAR     76  72  87 CALM      29.88S
N.O. INTL ARPT PTCLDY    78  73  84 W6        29.87R
SLIDELL        CLEAR     73  72  96 CALM      29.87R
$$

MARINE REPORTS

STATION/POSITION TIME  TEMP    WIND        PRES    VSBY  WAVE
                       AIR SEA DIR/SP/G                  HT/PER
                 (UTC) (F)     (DEG/KT/KT) (MB)    (MI)  (FT/S)
BUOY 30 S HIGH I 0950   85 86  280/  4/  6 1011.1S         1/ 4
SEA RIM ST PARK  1000   77     350/  6/  6 1012.1R
PORT ARTHUR      0900      88              1011.5R
SABINE PASS N    0900   83 88  320/  2/  2 1011.5R
TEXAS POINT      NOT AVBL
CALCASIEU PASS   0900   82 87   30/  4/  4 1010.7R
LK CHARLES BEACH 0900   80 88                N/A
MARSH ISLAND     0900   86     260/  4/  7   N/A           0
FRESH WATER LOCK 0900   81 89              1011.3S
AMERADA PASS     0900   82 86   CALM  /  2 1011.4R
$$



USA.gov is the U.S. government's official web portal to all federal, state and local government web resources and services.